Aracde Fitness online results

Treadmill Aracde Running Logo

Results

Here are last Arcade Fitness workouts and online results.

See overall rankings

Day Pseudo Level Device Time Firstname Name Rank Jumping Score Fitness Level Score Cat. Share
1 2022-03-26 Fox69 Track100 No Sensor 0:0:36.1 s 1/1 5 D - Active
2 2022-03-08 MaxFer1971 Track100 BLE Bike Trainer 0:0:30 s Max Fer 1/1 6 D - Active
3 2022-02-27 Lagkana Track100 BLE Speed Sensor 0:0:36.7 s Terry Waters 1/1 5 D - Active
4 2022-02-27 AdrianB Track100 No Sensor 0:0:31.9 s Adrian Blacha 1/1 6 D - Active
5 2022-02-05 Bourrique Track100 ANT+ Power 0:0:26.5 s Franck Dubois 1/1 6 D - Active
6 2022-01-28 Fox69 Track100 No Sensor 0:0:36.1 s 1/1 5 D - Active
7 2022-01-03 yardenma Track100 MoonRun 0:0:20.7 s Yaarden Malkin 1/1 8 C - Sportive
8 2022-01-01 Bernie Track100 BLE Speed Sensor 0:0:24.7 s 1/1 7 C - Sportive
9 2022-01-01 Bernie Track100 BLE Speed Sensor 0:0:20.9 s 1/1 8 C - Sportive
10 2021-12-25 Lukewarm Track100 GARMIN Watch 0:0:31 s 1/1 6 D - Active
11 2021-12-03 BrianC Track100 BLE HR 0:1:19.7 s 1/1 3 D - Active
12 2021-11-23 SpeedMaster Track100 BLE Power 0:0:21.4 s Edd Or 1/1 8 C - Sportive
13 2021-11-14 Ncv78 Track100 BLE HR 0:0:36.1 s Nelson Vieira 1/1 5 D - Active
14 2021-10-13 Mihai Track100 BLE HR 0:1:29.7 s Mihai Mihai 1/1 3 D - Active
15 2021-09-26 Hi12345 Track100 BLE Bike Trainer 0:0:39.7 s Th Oh 1/1 5 D - Active
16 2021-08-10 jaimesim Track100 No Sensor 0:0:27.1 s 1/1 6 D - Active
17 2021-08-09 MrTwo Trail1000 MoonRun 0:3:39.3 s 1/2 12 B - Competitive
18 2021-08-09 MrOne Trail1000 MoonRun 0:5:18.3 s 2/2 8 C - Sportive
19 2021-08-09 MrOne Trail1000 MoonRun 0:6:58.6 s 1/1 7 C - Sportive
20 2021-08-09 MrOne Steeple100 MoonRun 0:1:55.4 s 1/1 90 % 2 E - Recovery
21 2021-08-09 MrOne Steeple100 MoonRun 0:0:48 s 1/1 50 % 4 D - Active
22 2021-08-09 MrOne Steeple100 MoonRun 0:0:42 s 1/1 90 % 4 D - Active
23 2021-08-08 MoonRunJon Steeple400 MoonRun 0:3:22.9 s 1/1 13 % 5 D - Active
24 2021-08-05 Jamesal Track100 No Sensor 0:0:26.7 s 1/1 6 D - Active
25 2021-08-05 Jamesal Track100 No Sensor 0:0:32.1 s 1/1 6 D - Active
26 2021-07-29 Qu0ckhanh Track100 BLE Power 0:1:16.1 s 1/1 3 D - Active
27 2021-07-29 Qu0ckhanh Track100 BLE Power 0:1:0.2 s 1/1 3 D - Active
28 2021-07-29 Qu0ckhanh Track100 BLE Power 0:2:24.4 s 1/1 2 E - Recovery
29 2021-07-19 MoonRunJon Steeple5000 MoonRun 0:25:43.8 s 1/2 12 B - Competitive
30 2021-07-18 MoonRunJon Steeple400 MoonRun 0:2:40.2 s 1/1 35 % 6 D - Active
31 2021-07-17 MoonRunJon Steeple100 MoonRun 0:0:31.2 s 1/1 70 % 6 D - Active
32 2021-07-14 Spikelet Track100 BLE Power 0:0:27.7 s Kevin Hampson 1/1 6 D - Active
33 2021-07-14 Spikelet Track100 BLE Power 0:0:38.2 s Kevin Hampson 1/1 5 D - Active
34 2021-07-14 Fanfan Castle100 BLE Bike Trainer 0:3:32.5 s Yvan Blancmunier 1/1 2 E - Recovery
35 2021-07-13 Spikelet Track100 BLE Power 0:0:30.1 s Kevin Hampson 1/1 6 D - Active
36 2021-07-13 Spikelet Track100 BLE Power 0:0:23.7 s Kevin Hampson 1/1 7 C - Sportive
37 2021-07-13 Spikelet Track100 BLE Power 0:0:53.4 s Kevin Hampson 1/1 4 D - Active
38 2021-07-12 MrOne Track100 MoonRun 0:0:18.3 s 1/1 9 C - Sportive
39 2021-07-12 MoonRunJon Track100 BLE Speed Sensor 0:2:7.2 s 1/1 2 E - Recovery
40 2021-07-01 ALDERONSWANSON Track100 BLE Power 0:0:20.3 s 1/1 8 C - Sportive
41 2021-06-26 Angelo83 Track100 Treadmill 0:0:28.7 s 1/1 6 D - Active
42 2021-06-08 Endy Track100 BLE Bike Trainer 0:0:36.9 s Andrea Coiana 1/1 5 D - Active
43 2021-06-08 Endy Track100 BLE Bike Trainer 0:0:44.4 s Andrea Coiana 1/1 4 D - Active
44 2021-06-08 3lhannah Track100 No Sensor 0:0:30.3 s 1/1 6 D - Active
45 2021-05-10 MrOne Trail1000 MoonRun 0:3:55 s 1/2 11 B - Competitive
46 2021-05-10 MrOne Trail1000 MoonRun 0:3:9.7 s 1/2 14 B - Competitive
47 2021-05-10 MrTwo Steeple400 MoonRun 0:2:10.2 s 1/2 52 % 7 C - Sportive
48 2021-05-10 MrOne Steeple400 MoonRun 0:2:18.1 s 2/2 16 % 7 C - Sportive
49 2021-05-10 MrOne Trail1000 MoonRun 0:3:42.7 s 1/2 12 B - Competitive
50 2021-05-10 MrTwo Trail1000 MoonRun 0:4:28.2 s 2/2 10 C - Sportive